Ellensburg, WA
on Tuesday, February 26, 2013

Tuesday
Previous Day Next Day
Daily Summary
 ActualAverage (KYKM)Record (KYKM)
Temperature
Mean Temperature °F 38°F  
Max Temperature 50°F 50°F 65°F (1953)
Min Temperature 30°F 27°F 4°F (2011)
Degree Days
Heating Degree Days 22 27  
Month to date heating degree days 757  
Since 1 July heating degree days 4475  
Cooling Degree Days 0 0  
Month to date cooling degree days 0  
Year to date cooling degree days 0  
Moisture
Dew Point 22°F   
Average Humidity 49    
Maximum Humidity 66    
Minimum Humidity 29    
Precipitation
Precipitation 0.00 in 0.03 in 0.46 in (2010)
Month to date precipitation 0.73  
Year to date precipitation 1.87  
Snow
Snow 0.00 in 0.10 in 1.20 in (1976)
Month to date snowfall 2.5  
Year to date snowfall 7.8  
Since 1 July snowfall 20.8  
Snow Depth in   
Wind
Wind Speed 11 mph   
Max Wind Speed 20 mph   
Max Gust Speed 28 mph   
Visibility 10 miles   
Events     

Key: T is trace of precipitation, MM is missing value
Source: NWS Daily Summary
Time(PST)TemperatureDew PointHumidity Pressure Visibility Wind DirectionWind SpeedGust SpeedPrecipitationEvents Conditions
12:53 AM 35.1°F 21.9°F 59% 30.21 in 10.0 miles WNW 10.4 mph - N/A   Clear
1:53 AM 37.0°F 23.0°F 57% 30.22 in 10.0 miles WNW 17.3 mph - N/A   Clear
2:53 AM 35.1°F 23.0°F 61% 30.24 in 10.0 miles WNW 15.0 mph - N/A   Clear
3:53 AM 36.0°F 23.0°F 59% 30.25 in 10.0 miles WNW 15.0 mph - N/A   Clear
4:53 AM 37.0°F 23.0°F 57% 30.27 in 10.0 miles WNW 11.5 mph - N/A   Partly Cloudy
5:53 AM 36.0°F 23.0°F 59% 30.27 in 10.0 miles WNW 11.5 mph - N/A   Partly Cloudy
6:53 AM 37.0°F 23.0°F 57% 30.29 in 10.0 miles WNW 16.1 mph - N/A   Clear
7:53 AM 37.9°F 24.1°F 57% 30.29 in 10.0 miles WNW 12.7 mph - N/A   Clear
8:53 AM 41.0°F 24.1°F 51% 30.30 in 10.0 miles NW 17.3 mph - N/A   Overcast
9:53 AM 44.1°F 24.1°F 45% 30.30 in 10.0 miles WNW 19.6 mph 27.6 mph N/A   Clear
10:53 AM 45.0°F 21.9°F 40% 30.30 in 10.0 miles WNW 12.7 mph - N/A   Clear
11:53 AM 46.9°F 21.0°F 36% 30.27 in 10.0 miles WSW 4.6 mph - N/A   Clear
12:53 PM 48.9°F 21.9°F 35% 30.26 in 10.0 miles Variable 3.5 mph - N/A   Clear
1:53 PM 50.0°F 19.0°F 29% 30.24 in 10.0 miles ESE 5.8 mph - N/A   Clear
2:53 PM 48.0°F 17.1°F 29% 30.23 in 10.0 miles SE 8.1 mph - N/A   Clear
3:53 PM 48.9°F 19.0°F 31% 30.22 in 10.0 miles SE 5.8 mph - N/A   Clear
4:53 PM 45.0°F 21.0°F 39% 30.22 in 10.0 miles SSE 4.6 mph - N/A   Clear
5:53 PM 43.0°F 21.0°F 42% 30.22 in 10.0 miles SE 3.5 mph - N/A   Unknown
6:53 PM 41.0°F 21.9°F 47% 30.22 in 10.0 miles East 6.9 mph - N/A   Partly Cloudy
7:53 PM 39.9°F 21.9°F 49% 30.21 in 10.0 miles ENE 6.9 mph - N/A   Mostly Cloudy
8:53 PM 39.0°F 23.0°F 53% 30.21 in 10.0 miles NE 5.8 mph - N/A   Mostly Cloudy
10:53 PM 35.1°F 21.9°F 59% 30.20 in 10.0 miles Calm Calm - N/A   Clear
11:53 PM 30.0°F 19.9°F 66% 30.19 in 10.0 miles NNE 8.1 mph - N/A   Partly Cloudy
Moon Phase
Feb. 26 Mar. 04 Mar. 11 Mar. 19 Mar. 27
Sunrise:06:46 AM (PST) Moon Rise:07:14 PM (PST)2/26
Sunset:05:43 PM (PST) Moon Set:06:45 AM (PST)2/26

Copyright © 2014 The Weather Underground, Inc.